Weather History for Mazatlan Airport, Mexico

Change the Weather History Date:

Saturday, October 5, 2013

  Actual Average Record
Temperature  
Mean Temperature 80 °F -  
Max Temperature 89 °F 86 °F 93 °F (2008)
Min Temperature 71 °F 68 °F 69 °F (2001)
Cooling Degree Days 15    
Growing Degree Days 30 (Base 50)    
Moisture  
Dew Point 71 °F    
Average Humidity 73    
Maximum Humidity 94    
Minimum Humidity 51    
Precipitation  
Precipitation 0.00 in - - ()
Sea Level Pressure  
Sea Level Pressure 29.86 in    
Wind  
Wind Speed 6 mph ()    
Max Wind Speed 14 mph    
Max Gust Speed -    
Visibility 12.2 miles    
Events      
Averages and records for this station are not official NWS values.
T = Trace of Precipitation, MM = Missing Value Source: Averaged Metar Reports

Daily Weather History Graph

Daily Weather History Graph

Search for Another Location

Airport:

Trip Planner

Search our weather history database for the weather conditions in past years. The results will help you decide how hot, cold, wet, or windy it might be!

Date:

Astronomy

Oct. 05, 2013 Rise Set
Actual Time 6:58 AM MDT 6:48 PM MDT
Civil Twilight 6:35 AM MDT 7:10 PM MDT
Nautical Twilight 6:09 AM MDT 7:36 PM MDT
Astronomical Twilight 5:43 AM MDT 8:02 PM MDT
Moon 7:32 AM MDT (10/5) 7:20 PM MDT (10/5)
Length of Visible Light 12h 34m
Length of Day
11h 49m
New Moon, 1% of the Moon is Illuminated
Oct 5
New Moon
Oct 11
First Quarter
Oct 18
Full
Oct 26
Last Quarter
Nov 3
New

Hourly Weather History & Observations

Time (MDT) Temp. Heat Index Dew Point Humidity Pressure Visibility Wind Dir Wind Speed Gust Speed Precip Events Conditions
12:00 AM 82 °F - 73 °F 69% 29.90 in - NW 2.2 mph - -  
12:41 AM 75.2 °F - 71.6 °F 89% 29.88 in 10.0 mi North 5.8 mph - N/A   Scattered Clouds
1:46 AM 75.2 °F - 71.6 °F 89% 29.88 in 10.0 mi NNE 6.9 mph - N/A   Partly Cloudy
2:45 AM 75.2 °F - 71.6 °F 89% 29.88 in 10.0 mi Calm Calm - N/A   Partly Cloudy
3:00 AM 80 °F - 72 °F 71% 29.89 in - Calm Calm - -  
3:40 AM 73.4 °F - 69.8 °F 88% 29.87 in 10.0 mi North 6.9 mph - N/A   Partly Cloudy
4:43 AM 73.4 °F - 69.8 °F 88% 29.88 in 10.0 mi NNE 8.1 mph - N/A   Partly Cloudy
5:47 AM 71.6 °F - 69.8 °F 94% 29.88 in 10.0 mi North 8.1 mph - N/A   Clear
6:00 AM 78 °F - 72 °F 77% 29.89 in - NNW 2.2 mph - -  
6:47 AM 71.6 °F - 69.8 °F 94% 29.88 in 12.0 mi North 8.1 mph - N/A   Clear
7:42 AM 75.2 °F - 69.8 °F 83% 29.88 in 12.0 mi NNW 6.9 mph - N/A   Partly Cloudy
8:48 AM 80.6 °F 85.4 °F 73.4 °F 79% 29.89 in 12.0 mi NNW 8.1 mph - N/A   Clear
9:47 AM 82.4 °F 88.2 °F 73.4 °F 74% 29.90 in 15.0 mi WNW 9.2 mph - N/A   Partly Cloudy
10:41 AM 84.2 °F 89.6 °F 71.6 °F 66% 29.90 in 15.0 mi West 9.2 mph - N/A   Partly Cloudy
11:46 AM 86.0 °F 91.8 °F 71.6 °F 62% 29.90 in 15.0 mi SW 9.2 mph - N/A   Partly Cloudy
12:00 PM 89 °F - 73 °F 51% 29.91 in - West 6.7 mph - -  
12:48 PM 87.8 °F 93.8 °F 71.6 °F 58% 29.87 in 15.0 mi SW 10.4 mph - N/A   Partly Cloudy
1:49 PM 87.8 °F 92.6 °F 69.8 °F 55% 29.85 in 15.0 mi WSW 11.5 mph - N/A   Scattered Clouds
2:40 PM 86.0 °F 90.4 °F 69.8 °F 58% 29.85 in 15.0 mi WSW 13.8 mph - N/A   Clear
3:00 PM 89 °F - 73 °F 51% 29.86 in - West 8.9 mph - -  
3:40 PM 86.0 °F 90.4 °F 69.8 °F 58% 29.82 in 15.0 mi SW 11.5 mph - N/A   Clear
4:40 PM 84.2 °F 89.6 °F 71.6 °F 66% 29.80 in 15.0 mi WSW 10.4 mph - N/A   Partly Cloudy
5:49 PM 82.4 °F 87.2 °F 71.6 °F 70% 29.80 in 15.0 mi West 10.4 mph - N/A   Partly Cloudy
6:00 PM 88 °F - 73 °F 53% 29.83 in - West 6.7 mph - -  
6:42 PM 80.6 °F 83.9 °F 69.8 °F 70% 29.82 in 12.0 mi WNW 9.2 mph - N/A   Scattered Clouds
7:40 PM 78.8 °F - 69.8 °F 74% 29.84 in 10.0 mi NW 6.9 mph - N/A   Scattered Clouds
8:44 PM 77.0 °F - 69.8 °F 78% 29.84 in 10.0 mi NW 11.5 mph - N/A   Scattered Clouds
9:00 PM 83 °F - 73 °F 65% 29.86 in - NW 6.7 mph - -  
9:44 PM 77.0 °F - 69.8 °F 78% 29.85 in 10.0 mi NW 9.2 mph - N/A   Scattered Clouds
10:41 PM 75.2 °F - 69.8 °F 83% 29.85 in 10.0 mi NNW 6.9 mph - N/A   Scattered Clouds
11:41 PM 75.2 °F - 69.8 °F 83% 29.86 in 10.0 mi NNE 6.9 mph - N/A   Scattered Clouds